Language selection

My Weather Profile Weather Topics  | 

Atlantic - Labrador: Past 24 Hour Conditions

 

Hopedale

04:00 PM ADT 13 May 2021
Disclaimer

This table is a summary of hourly weather conditions for the past 24 hours.
Please note that these observations might not always be representative of weather conditions over their associated marine area.

Date / Time
(ADT)
Wind(knots) Conditions Visibility(km) Pressure(kPa) Air tempC) Relative humidity(%) Dew pointC)
13 May 2021
16:00 18 gust 24 N/A N/A 101.3 1 97 1
15:00 17 gust 26 N/A N/A 101.3 2 97 1
14:00 17 gust 24 N/A N/A 101.3 2 96 1
13:00 23 gust 30 N/A N/A 101.3 2 96 1
12:00 21 gust 32 N/A N/A 101.2 2 96 1
11:00 19 gust 28 N/A N/A 101.2 2 96 1
10:00 16 gust 26 N/A N/A 101.2 2 96 1
9:00 18 gust 26 N/A N/A 101.2 1 96 1
8:00 17 gust 30 N/A N/A 101.2 1 96 1
7:00 19 gust 26 N/A N/A 101.2 1 96 1
6:00 19 gust 28 N/A N/A 101.2 1 95 0
5:00 17 gust 24 N/A N/A 101.2 1 95 1
4:00 17 gust 25 N/A N/A 101.2 1 95 0
3:00 18 gust 26 N/A N/A 101.3 1 95 0
2:00 18 gust 26 N/A N/A 101.3 1 94 0
1:00 15 gust 22 N/A N/A 101.3 1 94 1
0:00 17 gust 24 N/A N/A 101.4 1 95 1
12 May 2021
23:00 12 gust 30 N/A N/A 101.5 1 96 1
22:00 11 gust 18 N/A N/A 101.6 1 96 1
21:00 10 gust 15 N/A N/A 101.6 1 95 1
20:00 12 gust 18 N/A N/A 101.6 1 93 0
19:00 11 gust 17 N/A N/A 101.6 1 92 0
18:00 11 gust 23 N/A N/A 101.7 2 90 0
17:00 13 gust 18 N/A N/A 101.7 2 88 0
16:00 10 gust 16 N/A N/A 101.7 2 87 1

Zoom-in to make a selection

Map of Atlantic - Labrador marine weather areas Kangiqsualujjuaq Airport Cape Kakkiviak Cape Kiglapait Cartwright Airport CFB Goose Bay Hopedale Mary's Harbour Nain Airport Makkovik Airport Saglek Tukialik Bay
Legend:
buoy Buoy
land station Land Station

Atlantic - Labrador Area

Another Region

What we are doing

Date modified: